Time,TemperatureF,DewpointF,PressureIn,WindDirection,WindDirectionDegrees,WindSpeedMPH,WindSpeedGustMPH,Humidity,HourlyPrecipIn,Conditions,Clouds,dailyrainin,SoftwareType,DateUTC
2013-02-08 00:01:00,28.0,25.0,30.13,SW,230,0.0,0.0,88,0.00,,,0.08,,2013-02-08 08:01:00,
2013-02-08 00:11:00,28.0,25.0,30.14,SW,230,0.0,0.0,88,0.00,,,0.08,,2013-02-08 08:11:00,
2013-02-08 00:21:00,28.0,25.0,30.14,SW,230,0.0,0.0,88,0.00,,,0.08,,2013-02-08 08:21:00,
2013-02-08 00:32:00,28.0,25.0,30.14,SW,230,0.0,0.0,88,0.00,,,0.08,,2013-02-08 08:32:00,
2013-02-08 00:41:00,28.0,25.0,30.14,SW,230,0.0,0.0,88,0.00,,,0.08,,2013-02-08 08:41:00,
2013-02-08 00:52:00,28.0,25.0,30.14,SW,230,0.0,0.0,89,0.00,,,0.08,,2013-02-08 08:52:00,
2013-02-08 01:02:00,28.0,25.0,30.14,SW,230,0.0,0.0,89,0.00,,,0.08,,2013-02-08 09:02:00,
2013-02-08 01:11:00,28.0,25.0,30.14,SW,230,0.0,0.0,89,0.00,,,0.08,,2013-02-08 09:11:00,
2013-02-08 01:21:00,28.0,25.0,30.14,SW,230,0.0,0.0,89,0.00,,,0.08,,2013-02-08 09:21:00,
2013-02-08 01:31:00,28.0,25.0,30.15,SW,230,0.0,0.0,89,0.00,,,0.08,,2013-02-08 09:31:00,
2013-02-08 01:41:00,28.0,25.0,30.15,SW,230,0.0,0.0,89,0.00,,,0.08,,2013-02-08 09:41:00,
2013-02-08 01:52:00,27.0,24.0,30.16,SW,230,0.0,0.0,89,0.00,,,0.00,,2013-02-08 09:52:00,
2013-02-08 02:01:00,27.0,24.0,30.16,SW,230,0.0,0.0,89,0.00,,,0.00,,2013-02-08 10:01:00,
2013-02-08 02:11:00,27.0,24.0,30.16,SW,230,0.0,0.0,89,0.00,,,0.00,,2013-02-08 10:11:00,
2013-02-08 02:21:00,27.0,24.0,30.16,SW,230,0.0,0.0,89,0.00,,,0.00,,2013-02-08 10:21:00,
2013-02-08 02:31:00,27.0,24.0,30.16,SW,230,0.0,0.0,89,0.00,,,0.00,,2013-02-08 10:31:00,
2013-02-08 02:41:00,27.0,24.0,30.16,SW,230,0.0,0.0,89,0.00,,,0.00,,2013-02-08 10:41:00,
2013-02-08 02:51:00,27.0,24.0,30.16,SW,230,0.0,0.0,89,0.00,,,0.00,,2013-02-08 10:51:00,
2013-02-08 03:01:00,27.0,24.0,30.16,SW,230,0.0,0.0,89,0.00,,,0.00,,2013-02-08 11:01:00,
2013-02-08 03:11:00,27.0,24.0,30.16,SW,230,0.0,0.0,89,0.00,,,0.00,,2013-02-08 11:11:00,
2013-02-08 03:21:00,27.0,24.0,30.16,SW,230,0.0,0.0,89,0.00,,,0.00,,2013-02-08 11:21:00,
2013-02-08 03:32:00,27.0,24.0,30.16,SW,230,0.0,0.0,89,0.00,,,0.00,,2013-02-08 11:32:00,
2013-02-08 03:41:00,27.0,24.0,30.16,SW,230,0.0,0.0,89,0.00,,,0.00,,2013-02-08 11:41:00,
2013-02-08 03:52:00,27.0,24.0,30.17,SW,230,0.0,0.0,89,0.00,,,0.00,,2013-02-08 11:52:00,
2013-02-08 04:01:00,27.0,24.0,30.17,SW,230,0.0,0.0,90,0.00,,,0.00,,2013-02-08 12:01:00,
2013-02-08 04:11:00,27.0,24.0,30.17,SW,230,0.0,0.0,90,0.00,,,0.00,,2013-02-08 12:11:00,
2013-02-08 04:21:00,27.0,24.0,30.17,SW,230,0.0,0.0,90,0.00,,,0.00,,2013-02-08 12:21:00,
2013-02-08 04:32:00,27.0,24.0,30.17,SW,230,0.0,0.0,90,0.00,,,0.00,,2013-02-08 12:32:00,
2013-02-08 04:41:00,27.0,24.0,30.17,SW,230,0.0,0.0,90,0.00,,,0.00,,2013-02-08 12:41:00,
2013-02-08 04:52:00,26.0,23.0,30.18,SW,230,0.0,0.0,90,0.00,,,0.00,,2013-02-08 12:52:00,
2013-02-08 05:01:00,26.0,23.0,30.19,SW,230,0.0,0.0,90,0.00,,,0.00,,2013-02-08 13:01:00,
2013-02-08 05:11:00,26.0,23.0,30.19,SW,230,0.0,0.0,90,0.00,,,0.00,,2013-02-08 13:11:00,
2013-02-08 05:21:00,26.0,23.0,30.19,SW,230,0.0,0.0,90,0.00,,,0.00,,2013-02-08 13:21:00,
2013-02-08 05:31:00,26.0,23.0,30.19,SW,230,0.0,0.0,90,0.00,,,0.00,,2013-02-08 13:31:00,
2013-02-08 05:42:00,26.0,23.0,30.19,SW,230,0.0,0.0,90,0.00,,,0.00,,2013-02-08 13:42:00,
2013-02-08 05:52:00,26.0,23.0,30.20,SW,230,0.0,0.0,90,0.00,,,0.00,,2013-02-08 13:52:00,
2013-02-08 06:01:00,26.0,23.0,30.20,SW,230,0.0,0.0,90,0.00,,,0.00,,2013-02-08 14:01:00,
2013-02-08 06:11:00,26.0,23.0,30.20,SW,230,0.0,0.0,90,0.00,,,0.00,,2013-02-08 14:11:00,
2013-02-08 06:21:00,26.0,23.0,30.21,SW,230,0.0,0.0,90,0.00,,,0.00,,2013-02-08 14:21:00,
2013-02-08 06:32:00,26.0,24.0,30.21,SW,230,0.0,0.0,91,0.00,,,0.00,,2013-02-08 14:32:00,
2013-02-08 06:41:00,26.0,24.0,30.21,SW,230,0.0,0.0,91,0.00,,,0.00,,2013-02-08 14:41:00,
2013-02-08 06:52:00,26.0,24.0,30.22,SW,230,0.0,0.0,91,0.00,,,0.00,,2013-02-08 14:52:00,
2013-02-08 07:01:00,26.0,24.0,30.22,SW,230,0.0,0.0,92,0.00,,,0.00,,2013-02-08 15:01:00,
2013-02-08 07:11:00,26.0,24.0,30.22,SW,230,0.0,0.0,92,0.00,,,0.00,,2013-02-08 15:11:00,
2013-02-08 07:21:00,27.0,25.0,30.21,SW,230,0.0,0.0,92,0.00,,,0.00,,2013-02-08 15:21:00,
2013-02-08 07:31:00,28.0,26.0,30.21,SW,230,0.0,0.0,92,0.00,,,0.00,,2013-02-08 15:31:00,
2013-02-08 07:41:00,28.0,26.0,30.21,SW,230,0.0,0.0,92,0.00,,,0.00,,2013-02-08 15:41:00,
2013-02-08 07:52:00,28.0,26.0,30.21,SW,230,0.0,0.0,92,0.00,,,0.00,,2013-02-08 15:52:00,
2013-02-08 08:01:00,28.0,26.0,30.21,SW,230,0.0,0.0,92,0.00,,,0.00,,2013-02-08 16:01:00,
2013-02-08 08:11:00,28.0,26.0,30.21,SW,230,0.0,0.0,92,0.00,,,0.00,,2013-02-08 16:11:00,
2013-02-08 08:21:00,28.0,26.0,30.21,SW,230,0.0,0.0,92,0.00,,,0.00,,2013-02-08 16:21:00,
2013-02-08 08:32:00,28.0,26.0,30.22,SW,230,0.0,0.0,92,0.00,,,0.00,,2013-02-08 16:32:00,
2013-02-08 08:41:00,28.0,26.0,30.22,SW,230,0.0,0.0,92,0.00,,,0.00,,2013-02-08 16:41:00,
2013-02-08 08:52:00,28.0,26.0,30.22,SW,230,0.0,0.0,92,0.00,,,0.00,,2013-02-08 16:52:00,
2013-02-08 09:01:00,28.0,26.0,30.23,SW,230,0.0,0.0,92,0.00,,,0.00,,2013-02-08 17:01:00,
2013-02-08 09:11:00,28.0,26.0,30.23,SW,230,0.0,0.0,92,0.00,,,0.00,,2013-02-08 17:11:00,
2013-02-08 09:22:00,28.0,26.0,30.23,SW,230,0.0,0.0,92,0.00,,,0.00,,2013-02-08 17:22:00,
2013-02-08 09:31:00,28.0,26.0,30.23,SW,230,0.0,0.0,92,0.00,,,0.00,,2013-02-08 17:31:00,
2013-02-08 09:42:00,28.0,26.0,30.23,SW,230,0.0,0.0,92,0.00,,,0.00,,2013-02-08 17:42:00,
2013-02-08 09:52:00,32.0,30.0,30.24,SW,230,0.0,0.0,94,0.00,,,0.00,,2013-02-08 17:52:00,
2013-02-08 10:01:00,33.0,31.0,30.24,SW,230,0.0,0.0,94,0.01,,,0.01,,2013-02-08 18:01:00,
2013-02-08 10:11:00,33.0,31.0,30.24,SW,230,0.0,0.0,94,0.01,,,0.01,,2013-02-08 18:11:00,
2013-02-08 10:23:00,35.0,34.0,30.25,SW,230,0.0,0.0,95,0.01,,,0.01,,2013-02-08 18:23:00,
2013-02-08 10:32:00,35.0,33.0,30.25,SW,230,0.0,0.0,94,0.01,,,0.01,,2013-02-08 18:32:00,
2013-02-08 10:42:00,35.0,33.0,30.25,SW,230,0.0,0.0,94,0.01,,,0.01,,2013-02-08 18:42:00,
2013-02-08 10:52:00,37.0,36.0,30.25,SW,230,0.0,2.0,95,0.01,,,0.01,,2013-02-08 18:52:00,
2013-02-08 11:01:00,37.0,36.0,30.25,SW,230,0.0,0.0,95,0.00,,,0.01,,2013-02-08 19:01:00,
2013-02-08 11:11:00,37.0,36.0,30.25,SW,230,0.0,0.0,95,0.00,,,0.01,,2013-02-08 19:11:00,
2013-02-08 11:21:00,38.0,36.0,30.25,SW,230,0.0,1.0,94,0.00,,,0.01,,2013-02-08 19:21:00,
2013-02-08 11:32:00,38.0,36.0,30.26,SW,230,0.0,1.0,93,0.00,,,0.01,,2013-02-08 19:32:00,
2013-02-08 11:41:00,38.0,36.0,30.26,SW,230,0.0,1.0,93,0.00,,,0.01,,2013-02-08 19:41:00,
2013-02-08 11:52:00,40.0,38.0,30.26,SW,232,1.0,2.0,91,0.00,,,0.01,,2013-02-08 19:52:00,
2013-02-08 12:01:00,40.0,37.0,30.25,ENE,70,1.0,3.0,88,0.00,,,0.01,,2013-02-08 20:01:00,
2013-02-08 12:11:00,40.0,37.0,30.25,ENE,70,1.0,3.0,88,0.00,,,0.01,,2013-02-08 20:11:00,
2013-02-08 12:21:00,42.0,36.0,30.25,WNW,294,0.0,6.0,80,0.00,,,0.01,,2013-02-08 20:21:00,
2013-02-08 12:31:00,43.0,37.0,30.24,NW,306,0.0,3.0,80,0.00,,,0.01,,2013-02-08 20:31:00,
2013-02-08 12:41:00,43.0,37.0,30.24,NW,306,0.0,3.0,80,0.00,,,0.01,,2013-02-08 20:41:00,
2013-02-08 12:52:00,44.0,37.0,30.24,NNE,28,0.0,2.0,75,0.00,,,0.01,,2013-02-08 20:52:00,
2013-02-08 13:01:00,46.0,37.0,30.24,WNW,302,1.0,4.0,71,0.00,,,0.01,,2013-02-08 21:01:00,
2013-02-08 13:11:00,46.0,37.0,30.24,WNW,302,1.0,4.0,71,0.00,,,0.01,,2013-02-08 21:11:00,
2013-02-08 13:21:00,47.0,36.0,30.23,West,271,1.0,6.0,65,0.00,,,0.01,,2013-02-08 21:21:00,
2013-02-08 13:32:00,46.0,35.0,30.22,NNW,335,1.0,4.0,65,0.00,,,0.01,,2013-02-08 21:32:00,
2013-02-08 13:41:00,46.0,35.0,30.22,NNW,335,1.0,4.0,65,0.00,,,0.01,,2013-02-08 21:41:00,
2013-02-08 13:52:00,45.0,35.0,30.23,NNW,339,1.0,3.0,68,0.00,,,0.01,,2013-02-08 21:52:00,
2013-02-08 14:01:00,45.0,35.0,30.22,NW,317,0.0,4.0,68,0.00,,,0.01,,2013-02-08 22:01:00,
2013-02-08 14:11:00,45.0,35.0,30.22,NW,317,0.0,4.0,68,0.00,,,0.01,,2013-02-08 22:11:00,
2013-02-08 14:21:00,45.0,35.0,30.22,ENE,62,1.0,4.0,67,0.00,,,0.01,,2013-02-08 22:21:00,
2013-02-08 14:31:00,44.0,36.0,30.22,ENE,61,0.0,2.0,72,0.00,,,0.01,,2013-02-08 22:31:00,
2013-02-08 14:41:00,44.0,36.0,30.22,ENE,61,0.0,2.0,72,0.00,,,0.01,,2013-02-08 22:41:00,
2013-02-08 14:52:00,43.0,35.0,30.23,NNE,29,0.0,3.0,73,0.00,,,0.01,,2013-02-08 22:52:00,
2013-02-08 15:01:00,43.0,35.0,30.22,WNW,284,1.0,3.0,73,0.00,,,0.01,,2013-02-08 23:01:00,
2013-02-08 15:11:00,43.0,35.0,30.22,WNW,284,1.0,3.0,73,0.00,,,0.01,,2013-02-08 23:11:00,
2013-02-08 15:21:00,43.0,34.0,30.23,North,355,1.0,3.0,71,0.00,,,0.01,,2013-02-08 23:21:00,
2013-02-08 15:31:00,43.0,35.0,30.23,North,11,0.0,1.0,72,0.00,,,0.01,,2013-02-08 23:31:00,
2013-02-08 15:41:00,43.0,35.0,30.23,North,11,0.0,1.0,72,0.00,,,0.01,,2013-02-08 23:41:00,
2013-02-08 15:52:00,43.0,34.0,30.23,ESE,119,0.0,2.0,70,0.00,,,0.01,,2013-02-08 23:52:00,
2013-02-08 16:01:00,42.0,33.0,30.23,ESE,119,0.0,2.0,70,0.00,,,0.01,,2013-02-09 00:01:00,
2013-02-08 16:11:00,42.0,33.0,30.23,ESE,119,0.0,2.0,70,0.00,,,0.01,,2013-02-09 00:11:00,
2013-02-08 16:21:00,42.0,33.0,30.23,ESE,113,0.0,1.0,71,0.00,,,0.01,,2013-02-09 00:21:00,
2013-02-08 16:31:00,42.0,33.0,30.23,ESE,111,0.0,2.0,69,0.00,,,0.01,,2013-02-09 00:31:00,
2013-02-08 16:41:00,42.0,33.0,30.23,ESE,111,0.0,2.0,69,0.00,,,0.01,,2013-02-09 00:41:00,
2013-02-08 16:52:00,42.0,33.0,30.23,ESE,111,0.0,1.0,71,0.00,,,0.01,,2013-02-09 00:52:00,
2013-02-08 17:01:00,41.0,33.0,30.23,ESE,111,0.0,0.0,74,0.00,,,0.01,,2013-02-09 01:01:00,
2013-02-08 17:11:00,41.0,33.0,30.23,ESE,111,0.0,0.0,74,0.00,,,0.01,,2013-02-09 01:11:00,
2013-02-08 17:21:00,41.0,34.0,30.23,ESE,111,0.0,0.0,76,0.00,,,0.01,,2013-02-09 01:21:00,
2013-02-08 17:31:00,41.0,34.0,30.23,ESE,111,0.0,1.0,76,0.00,,,0.01,,2013-02-09 01:31:00,
2013-02-08 17:41:00,41.0,34.0,30.23,ESE,111,0.0,1.0,76,0.00,,,0.01,,2013-02-09 01:41:00,
2013-02-08 17:52:00,41.0,34.0,30.23,ESE,111,0.0,0.0,76,0.00,,,0.01,,2013-02-09 01:52:00,
2013-02-08 18:01:00,41.0,34.0,30.23,ESE,111,0.0,0.0,77,0.00,,,0.01,,2013-02-09 02:01:00,
2013-02-08 18:11:00,40.0,33.0,30.23,ESE,111,0.0,0.0,77,0.00,,,0.01,,2013-02-09 02:11:00,
2013-02-08 18:21:00,40.0,33.0,30.23,ESE,111,0.0,0.0,77,0.00,,,0.01,,2013-02-09 02:21:00,
2013-02-08 18:31:00,40.0,33.0,30.23,ESE,111,0.0,0.0,77,0.00,,,0.01,,2013-02-09 02:31:00,
2013-02-08 18:41:00,40.0,33.0,30.23,ESE,111,0.0,0.0,77,0.00,,,0.01,,2013-02-09 02:41:00,
2013-02-08 18:52:00,40.0,33.0,30.22,ESE,111,0.0,0.0,77,0.00,,,0.01,,2013-02-09 02:52:00,
2013-02-08 19:01:00,40.0,34.0,30.22,ESE,111,0.0,0.0,78,0.00,,,0.01,,2013-02-09 03:01:00,
2013-02-08 19:11:00,40.0,34.0,30.22,ESE,111,0.0,0.0,78,0.00,,,0.01,,2013-02-09 03:11:00,
2013-02-08 19:21:00,39.0,33.0,30.22,ESE,111,0.0,0.0,79,0.00,,,0.01,,2013-02-09 03:21:00,
2013-02-08 19:31:00,39.0,33.0,30.23,ESE,111,0.0,0.0,80,0.00,,,0.01,,2013-02-09 03:31:00,
2013-02-08 19:41:00,39.0,33.0,30.23,ESE,111,0.0,0.0,80,0.00,,,0.01,,2013-02-09 03:41:00,
2013-02-08 19:52:00,39.0,33.0,30.23,ESE,111,0.0,0.0,80,0.00,,,0.01,,2013-02-09 03:52:00,
2013-02-08 20:01:00,39.0,34.0,30.23,ESE,111,0.0,0.0,81,0.00,,,0.01,,2013-02-09 04:01:00,
2013-02-08 20:11:00,38.0,33.0,30.23,ESE,111,0.0,0.0,82,0.00,,,0.01,,2013-02-09 04:11:00,
2013-02-08 20:22:00,38.0,33.0,30.23,ESE,111,0.0,0.0,82,0.00,,,0.01,,2013-02-09 04:22:00,
2013-02-08 20:31:00,38.0,33.0,30.23,ESE,111,0.0,1.0,82,0.00,,,0.01,,2013-02-09 04:31:00,
2013-02-08 20:41:00,38.0,33.0,30.23,ESE,111,0.0,1.0,82,0.00,,,0.01,,2013-02-09 04:41:00,
2013-02-08 20:52:00,38.0,33.0,30.23,ESE,111,0.0,0.0,83,0.00,,,0.01,,2013-02-09 04:52:00,
2013-02-08 21:02:00,38.0,33.0,30.23,ESE,111,0.0,0.0,83,0.00,,,0.01,,2013-02-09 05:02:00,
2013-02-08 21:11:00,38.0,33.0,30.23,ESE,111,0.0,0.0,83,0.00,,,0.01,,2013-02-09 05:11:00,
2013-02-08 21:22:00,38.0,33.0,30.24,ESE,111,0.0,0.0,83,0.00,,,0.01,,2013-02-09 05:22:00,
2013-02-08 21:31:00,38.0,33.0,30.24,ESE,111,0.0,0.0,83,0.00,,,0.01,,2013-02-09 05:31:00,
2013-02-08 21:41:00,38.0,33.0,30.24,ESE,111,0.0,0.0,83,0.00,,,0.01,,2013-02-09 05:41:00,
2013-02-08 21:52:00,38.0,34.0,30.23,ESE,111,0.0,0.0,84,0.00,,,0.01,,2013-02-09 05:52:00,
2013-02-08 22:01:00,38.0,34.0,30.23,ESE,111,0.0,0.0,84,0.00,,,0.01,,2013-02-09 06:01:00,
2013-02-08 22:11:00,38.0,34.0,30.23,ESE,111,0.0,0.0,84,0.00,,,0.01,,2013-02-09 06:11:00,
2013-02-08 22:21:00,37.0,33.0,30.23,ESE,111,0.0,0.0,85,0.00,,,0.01,,2013-02-09 06:21:00,
2013-02-08 22:31:00,37.0,33.0,30.23,ESE,111,0.0,0.0,84,0.00,,,0.01,,2013-02-09 06:31:00,
2013-02-08 22:41:00,37.0,33.0,30.23,ESE,111,0.0,0.0,84,0.00,,,0.01,,2013-02-09 06:41:00,
2013-02-08 22:52:00,37.0,33.0,30.23,ESE,111,0.0,0.0,84,0.00,,,0.01,,2013-02-09 06:52:00,
2013-02-08 23:01:00,37.0,33.0,30.23,ESE,111,0.0,0.0,85,0.00,,,0.01,,2013-02-09 07:01:00,
2013-02-08 23:11:00,37.0,33.0,30.23,ESE,111,0.0,0.0,85,0.00,,,0.01,,2013-02-09 07:11:00,
2013-02-08 23:21:00,37.0,33.0,30.23,ESE,111,0.0,0.0,86,0.00,,,0.01,,2013-02-09 07:21:00,
2013-02-08 23:31:00,37.0,33.0,30.23,ESE,111,0.0,0.0,86,0.00,,,0.01,,2013-02-09 07:31:00,
2013-02-08 23:42:00,37.0,33.0,30.23,ESE,111,0.0,0.0,86,0.00,,,0.01,,2013-02-09 07:42:00,
2013-02-08 23:52:00,37.0,33.0,30.23,ESE,111,0.0,0.0,86,0.00,,,0.01,,2013-02-09 07:52:00,